Location: Narragansett
(41.4496°N, 71.4488°W)
Time: 11:50:50
(UTC+00:00)

X-37B - Pass Details

Date: 03 October 2021
Orbit: 385 x 389 km, 45.0° (Epoch: 17 October)

Event Time Altitude Azimuth Distance (km) Brightness Sun altitude
Exits shadow 10:06:38 11° 269° (W) 1,352 2.6 -8.0°
Maximum altitude 10:09:07 24° 214° (SW) 842 2.0 -7.5°
Drops below altitude 10° 10:11:45 10° 157° (SSE) 1,406 3.7 -7.0°
Sets 10:14:02 0° 143° (SE) 2,257 5.0 -6.6°
